Kangerlussuaq, Greenland

2:17 AM -02 on August 19, 2017 (GMT -0200)
Kangerlussuaq

Weather History for BGSF - October, 2012

Change the Weather History Date:

Wednesday, October 17, 2012

  Actual Average Record
Temperature  
Mean Temperature 30 °F -  
Max Temperature 37 °F 23 °F 50 °F (1999)
Min Temperature 24 °F 8 °F -5 °F (2011)
Degree Days  
Heating Degree Days 34    
Moisture  
Dew Point 19 °F    
Average Humidity 56    
Maximum Humidity 80    
Minimum Humidity 26    
Precipitation  
Precipitation 0.00 in 0.02 in - ()
Sea Level Pressure  
Sea Level Pressure 30.11 in    
Wind  
Wind Speed 10 mph ()    
Max Wind Speed 16 mph    
Max Gust Speed -    
Visibility 7.1 miles    
Events      
Averages and records for this station are not official NWS values.
T = Trace of Precipitation, MM = Missing Value Source: Averaged Metar Reports

Daily Weather History Graph

Daily Weather History Graph

Search for Another Location

Airport or City:

Trip Planner

Search our weather history database for the weather conditions in past years. The results will help you decide how hot, cold, wet, or windy it might be!

Date:

Astronomy

Oct. 17, 2012 Rise Set
Actual Time 8:31 AM -02 5:43 PM -02
Civil Twilight 7:36 AM -02 6:38 PM -02
Nautical Twilight 6:34 AM -02 7:39 PM -02
Astronomical Twilight 5:31 AM -02 8:42 PM -02
Moon 12:40 PM -02 (10/17) 5:26 PM -02 (10/17)
Length of Visible Light 11h 02m
Length of Day
9h 11m
Waxing Crescent, 6% of the Moon is Illuminated
Oct 17
Waxing Crescent
Oct 22
First Quarter
Oct 29
Full
Nov 6
Last Quarter
Nov 13
New

Hourly Weather History & Observations

Time (-02) Temp. Windchill Dew Point Humidity Pressure Visibility Wind Dir Wind Speed Gust Speed Precip Events Conditions
12:20 AM 35.6 °F 27.5 °F 21.2 °F 56% 30.18 in 6.2 mi ENE 11.5 mph - N/A   Unknown
12:50 AM 35.6 °F 26.6 °F 21.2 °F 56% 30.18 in 6.2 mi East 13.8 mph - N/A   Unknown
1:00 AM 34 °F - 19 °F 41% 30.22 in 19 mi ENE 12.7 mph - -  
1:20 AM 33.8 °F 24.3 °F 21.2 °F 60% 30.18 in 6.2 mi ENE 13.8 mph - N/A   Unknown
1:50 AM 33.8 °F 23.9 °F 21.2 °F 60% 30.18 in 6.2 mi ENE 15.0 mph - N/A   Unknown
2:20 AM 33.8 °F 24.3 °F 19.4 °F 56% 30.21 in 6.2 mi East 13.8 mph - N/A   Unknown
2:50 AM 33.8 °F 25.3 °F 19.4 °F 56% 30.21 in 6.2 mi ENE 11.5 mph - N/A   Unknown
3:20 AM 33.8 °F 24.3 °F 19.4 °F 56% 30.21 in 6.2 mi East 13.8 mph - N/A   Unknown
3:50 AM 35.6 °F 26.2 °F 19.4 °F 52% 30.21 in 6.2 mi East 15.0 mph - N/A   Unknown
4:00 AM 34 °F - 17 °F 37% 30.22 in 16 mi ENE 12.7 mph - -  
4:20 AM 32.0 °F 23.6 °F 19.4 °F 60% 30.21 in 6.2 mi ENE 10.4 mph - N/A   Unknown
4:50 AM 33.8 °F 23.5 °F 19.4 °F 56% 30.21 in 6.2 mi ENE 16.1 mph - N/A   Unknown
5:20 AM 33.8 °F 25.3 °F 19.4 °F 56% 30.21 in 6.2 mi ENE 11.5 mph - N/A   Unknown
5:50 AM 33.8 °F 24.3 °F 19.4 °F 56% 30.21 in 6.2 mi ENE 13.8 mph - N/A   Unknown
6:20 AM 32.0 °F 23.0 °F 19.4 °F 60% 30.21 in 6.2 mi ENE 11.5 mph - N/A   Unknown
6:50 AM 32.0 °F 24.2 °F 19.4 °F 60% 30.21 in 6.2 mi ENE 9.2 mph - N/A   Unknown
7:00 AM 31 °F - 16 °F 41% 30.23 in 18 mi ENE 10.4 mph - -  
7:20 AM 32.0 °F 22.5 °F 17.6 °F 55% 30.21 in 6.2 mi ENE 12.7 mph - N/A   Unknown
7:50 AM 32.0 °F 22.5 °F 17.6 °F 55% 30.21 in 6.2 mi ENE 12.7 mph - N/A   Unknown
8:20 AM 32.0 °F 22.1 °F 17.6 °F 55% 30.18 in 6.2 mi ENE 13.8 mph - N/A   Unknown
8:50 AM 32.0 °F 23.0 °F 17.6 °F 55% 30.18 in 6.2 mi ENE 11.5 mph - N/A   Unknown
9:20 AM 32.0 °F 23.6 °F 17.6 °F 55% 30.18 in 6.2 mi ENE 10.4 mph - N/A   Unknown
9:50 AM 32.0 °F 23.6 °F 17.6 °F 55% 30.18 in 6.2 mi ENE 10.4 mph - N/A   Unknown
10:00 AM 33 °F - 15 °F 35% 30.22 in 17 mi ENE 9.2 mph - -   Scattered Clouds
10:20 AM 33.8 °F 25.8 °F 17.6 °F 52% 30.18 in 6.2 mi East 10.4 mph - N/A   Partly Cloudy
10:50 AM 33.8 °F 25.8 °F 17.6 °F 52% 30.18 in 6.2 mi East 10.4 mph - N/A   Partly Cloudy
11:20 AM 35.6 °F 27.1 °F 17.6 °F 48% 30.18 in 6.2 mi ENE 12.7 mph - N/A   Unknown
11:50 AM 35.6 °F 28.6 °F 17.6 °F 48% 30.15 in 6.2 mi East 9.2 mph - N/A   Partly Cloudy
12:20 PM 37.4 °F 29.8 °F 17.6 °F 45% 30.15 in 6.2 mi East 11.5 mph - N/A   Unknown
12:50 PM 37.4 °F 30.8 °F 17.6 °F 45% 30.12 in 6.2 mi East 9.2 mph - N/A   Unknown
1:00 PM 37 °F - 14 °F 26% 30.15 in 25 mi ENE 9.2 mph - -  
1:20 PM 37.4 °F 30.8 °F 17.6 °F 45% 30.12 in 6.2 mi East 9.2 mph - N/A   Unknown
2:20 PM 37.4 °F 31.4 °F 17.6 °F 45% 30.09 in 6.2 mi East 8.1 mph - N/A   Unknown
2:50 PM 37.4 °F 32.1 °F 19.4 °F 48% 30.09 in 6.2 mi East 6.9 mph - N/A   Unknown
3:20 PM 37.4 °F 32.8 °F 17.6 °F 45% 30.06 in 6.2 mi East 5.8 mph - N/A   Unknown
3:50 PM 37.4 °F 32.1 °F 17.6 °F 45% 30.06 in 6.2 mi ENE 6.9 mph - N/A   Unknown
4:00 PM 36 °F - 16 °F 30% 30.08 in 25 mi ENE 6.9 mph - -   Clear
4:20 PM 35.6 °F 29.2 °F 19.4 °F 52% 30.04 in 6.2 mi ENE 8.1 mph - N/A   Unknown
4:50 PM 33.8 °F 27.0 °F 19.4 °F 56% 30.04 in 6.2 mi ENE 8.1 mph - N/A   Partly Cloudy
5:20 PM 32.0 °F 24.2 °F 19.4 °F 60% 30.01 in 6.2 mi East 9.2 mph - N/A   Partly Cloudy
5:50 PM 30.2 °F 23.4 °F 19.4 °F 64% 30.01 in 6.2 mi East 6.9 mph - N/A   Partly Cloudy
6:20 PM 30.2 °F 22.6 °F 19.4 °F 64% 30.01 in 6.2 mi East 8.1 mph - N/A   Unknown
6:50 PM 28.4 °F 19.7 °F 19.4 °F 69% 29.98 in 6.2 mi ENE 9.2 mph - N/A   Unknown
7:00 PM 28 °F - 18 °F 54% 30.01 in 31 mi ENE 10.4 mph - -  
7:20 PM 26.6 °F 16.8 °F 19.4 °F 74% 29.98 in 6.2 mi ENE 10.4 mph - N/A   Partly Cloudy
7:50 PM 26.6 °F 20.0 °F 19.4 °F 74% 29.98 in 6.2 mi NNE 5.8 mph - N/A   Unknown
8:20 PM 26.6 °F 20.0 °F 17.6 °F 69% 29.95 in 6.2 mi NNE 5.8 mph - N/A   Unknown
8:50 PM 26.6 °F 19.1 °F 19.4 °F 74% 29.95 in 6.2 mi NE 6.9 mph - N/A   Partly Cloudy
9:20 PM 26.6 °F 20.0 °F 19.4 °F 74% 29.95 in 6.2 mi NE 5.8 mph - N/A   Unknown
9:50 PM 24.8 °F 19.1 °F 19.4 °F 80% 29.95 in 6.2 mi NE 4.6 mph - N/A   Partly Cloudy
10:00 PM 25 °F - 18 °F 65% 29.96 in 31 mi ENE 4.6 mph - -  
10:20 PM 24.8 °F 17.9 °F 19.4 °F 80% 29.92 in 6.2 mi ENE 5.8 mph - N/A   Unknown
10:50 PM 26.6 °F 21.2 °F 19.4 °F 74% 29.92 in 6.2 mi NE 4.6 mph - N/A   Unknown
11:20 PM 24.8 °F 17.9 °F 19.4 °F 80% 29.92 in 6.2 mi NE 5.8 mph - N/A   Unknown
11:50 PM 24.8 °F 16.9 °F 19.4 °F 80% 29.89 in 6.2 mi NE 6.9 mph - N/A   Unknown